Weather History for LHUD - September, 2013

Change the Weather History Date:

Monday, September 2, 2013

  Actual Average (LRAR) Record (LRAR)
Temperature  
Mean Temperature 62 °F -  
Max Temperature 73 °F 73 °F 92 °F (2012)
Min Temperature 51 °F 50 °F 44 °F (1998)
Degree Days  
Heating Degree Days 3    
Growing Degree Days 12 (Base 50)    
Moisture  
Dew Point 44 °F    
Average Humidity 51    
Maximum Humidity 82    
Minimum Humidity 20    
Precipitation  
Precipitation 0.00 in 0.04 in - ()
Sea Level Pressure  
Sea Level Pressure 30.19 in    
Wind  
Wind Speed 7 mph ()    
Max Wind Speed 15 mph    
Max Gust Speed -    
Averages and records for this station are not official NWS values.
T = Trace of Precipitation, MM = Missing Value Source: Averaged Metar Reports

Daily Weather History Graph

Daily Weather History Graph

Search for Another Location

Airport or City:

Trip Planner

Search our weather history database for the weather conditions in past years. The results will help you decide how hot, cold, wet, or windy it might be!

Date:

Astronomy

Sep. 02, 2013 Rise Set
Actual Time 6:01 AM CEST 7:16 PM CEST
Civil Twilight 5:30 AM CEST 7:47 PM CEST
Nautical Twilight 4:52 AM CEST 8:24 PM CEST
Astronomical Twilight 4:13 AM CEST 9:04 PM CEST
Moon 2:54 AM CEST (9/2) 5:24 PM CEST (9/2)
Length of Visible Light 14h 17m
Length of Day
13h 15m
Waning Crescent, 9% of the Moon is Illuminated
Sep 2
Waning Crescent
Sep 5
New
Sep 12
First Quarter
Sep 19
Full
Sep 27
Last Quarter

Hourly Weather History & Observations

Time (CEST) Temp. Dew Point Humidity Pressure Visibility Wind Dir Wind Speed Gust Speed Precip Events Conditions
12:45 AM 59.0 °F 50.0 °F 72% 30.18 in - NNW 6.9 mph - N/A   Clear
1:45 AM 57.2 °F 48.2 °F 72% 30.18 in - NNW 8.1 mph - N/A   Clear
2:45 AM 55.4 °F 50.0 °F 82% 30.18 in - NNW 5.8 mph - N/A   Clear
3:45 AM 53.6 °F 48.2 °F 82% 30.18 in - NNW 4.6 mph - N/A   Clear
4:45 AM 53.6 °F 48.2 °F 82% 30.18 in - NW 5.8 mph - N/A   Clear
5:45 AM 53.6 °F 46.4 °F 77% 30.18 in - NW 6.9 mph - N/A   Clear
6:15 AM 53.6 °F 46.4 °F 77% 30.21 in - WNW 4.6 mph - N/A   Clear
6:45 AM 53.6 °F 46.4 °F 77% 30.21 in - WNW 4.6 mph - N/A   Clear
7:15 AM 55.4 °F 46.4 °F 72% 30.21 in - NW 9.2 mph - N/A   Clear
7:45 AM 57.2 °F 46.4 °F 67% 30.21 in - NW 8.1 mph - N/A   Clear
8:00 AM 56 °F 46 °F 61% 30.21 in 31 mi NW 6.7 mph - -   Partly Cloudy
8:15 AM 55.4 °F 46.4 °F 72% 30.21 in - WNW 6.9 mph - N/A   Clear
8:45 AM 59.0 °F 46.4 °F 63% 30.21 in - NW 8.1 mph - N/A   Clear
9:15 AM 62.6 °F 46.4 °F 55% 30.21 in - NW 6.9 mph - N/A   Clear
9:45 AM 66.2 °F 42.8 °F 43% 30.21 in - NNW 10.4 mph - N/A   Clear
10:15 AM 68.0 °F 42.8 °F 40% 30.24 in - NNW 10.4 mph - N/A   Clear
10:45 AM 68.0 °F 41.0 °F 37% 30.24 in - NW 15.0 mph - N/A   Clear
11:15 AM 69.8 °F 41.0 °F 35% 30.24 in - NW 12.7 mph - N/A   Clear
11:45 AM 69.8 °F 41.0 °F 35% 30.24 in - WNW 10.4 mph - N/A   Clear
12:15 PM 69.8 °F 41.0 °F 35% 30.24 in - WNW 9.2 mph - N/A   Clear
12:45 PM 71.6 °F 41.0 °F 33% 30.21 in - WNW 10.4 mph - N/A   Clear
1:15 PM 73.4 °F 41.0 °F 31% 30.21 in - WNW 13.8 mph - N/A   Clear
1:45 PM 71.6 °F 39.2 °F 31% 30.21 in - WNW 11.5 mph - N/A   Clear
2:00 PM 71 °F 39 °F 20% 30.20 in 37 mi WNW 11.2 mph - -   Partly Cloudy
2:15 PM 71.6 °F 39.2 °F 31% 30.18 in - WNW 9.2 mph - N/A   Clear
2:45 PM 71.6 °F 39.2 °F 31% 30.18 in - WNW 10.4 mph - N/A   Clear
3:15 PM 71.6 °F 41.0 °F 33% 30.18 in - WNW 12.7 mph - N/A   Clear
3:45 PM 69.8 °F 41.0 °F 35% 30.18 in - WNW 10.4 mph - N/A   Clear
4:15 PM 69.8 °F 41.0 °F 35% 30.18 in - West 8.1 mph - N/A   Clear
4:45 PM 71.6 °F 41.0 °F 33% 30.18 in - West 8.1 mph - N/A   Clear
5:15 PM 71.6 °F 41.0 °F 33% 30.18 in - West 9.2 mph - N/A   Clear
5:45 PM 71.6 °F 42.8 °F 35% 30.15 in - West 8.1 mph - N/A   Clear
6:15 PM 69.8 °F 41.0 °F 35% 30.15 in - West 9.2 mph - N/A   Clear
6:45 PM 69.8 °F 42.8 °F 38% 30.15 in - WSW 6.9 mph - N/A   Clear
7:15 PM 68.0 °F 42.8 °F 40% 30.15 in - WSW 5.8 mph - N/A   Clear
7:45 PM 62.6 °F 42.8 °F 48% 30.18 in - West 5.8 mph - N/A   Clear
8:00 PM 62 °F 43 °F 39% 30.17 in 31 mi West 4.5 mph - -   Partly Cloudy
8:15 PM 60.8 °F 44.6 °F 55% 30.18 in - West 4.6 mph - N/A   Clear
8:45 PM 59.0 °F 46.4 °F 63% 30.18 in - SSW 4.6 mph - N/A   Clear
9:15 PM 60.8 °F 44.6 °F 55% 30.18 in - WSW 6.9 mph - N/A   Clear
9:45 PM 59.0 °F 44.6 °F 59% 30.18 in - WSW 6.9 mph - N/A   Clear
10:45 PM 57.2 °F 46.4 °F 67% 30.18 in - WSW 5.8 mph - N/A   Clear
11:45 PM 55.4 °F 46.4 °F 72% 30.18 in - West 4.6 mph - N/A   Clear